Theta_e
349 348 347 348 349 350 354 356 361 363 362 358 359 365 366 366 366 370 369 367 373 369 368 368 365 370 370 367 369 364 364 364 364 362 359 360 354 355 357 352 350 350 351 353 354 355 354 351 351 350 345 339 332 338 344 344 344 341 340 339 336 337 342 347 349 349 344 340 341 339 338 340 342 342 342 341 339 337 337 333 337 347 352 354 354 354 353 353 352 349 344 339 342 347 351 351 351
350 351 350 350 348 353 360 359 363 363 360 356 360 368 367 367 368 371 371 371 373 371 372 370 367 372 369 366 368 369 368 363 364 362 357 356 355 358 356 351 349 350 351 352 354 353 352 351 350 349 344 340 334 340 344 338 339 340 339 339 338 336 333 333 335 337 338 340 341 340 341 343 344 343 342 342 340 337 335 332 338 349 353 354 354 354 353 353 352 348 344 343 347 351 352 352 353
352 352 350 351 352 356 361 360 361 358 356 356 361 371 369 369 371 368 370 371 371 370 372 371 371 372 369 370 369 370 368 359 358 358 355 357 357 358 356 350 348 350 351 352 353 352 351 350 350 350 345 340 336 339 342 337 334 337 339 340 339 337 333 330 330 331 333 339 343 343 344 346 347 346 344 343 341 337 333 336 348 354 355 355 354 354 354 353 351 346 346 347 350 351 352 352 353
353 351 350 353 357 359 364 365 364 358 356 355 358 370 371 369 370 368 367 367 368 368 369 373 372 367 367 370 367 365 363 359 357 357 356 357 358 358 355 349 349 351 351 351 351 350 350 350 350 350 347 341 338 335 336 337 334 333 337 339 339 338 336 334 334 333 331 337 344 345 345 348 351 350 348 344 340 336 331 340 352 355 355 355 355 354 354 352 348 345 349 350 350 352 352 351 352
353 353 351 355 361 363 367 367 366 360 359 359 361 370 369 366 367 365 363 362 366 368 369 373 370 364 366 368 370 368 362 359 357 356 357 358 359 357 353 349 350 351 350 349 349 349 349 349 349 348 348 345 344 340 333 333 333 331 333 336 338 338 338 337 335 335 331 334 344 346 346 349 352 353 350 346 341 334 335 347 354 354 355 355 354 354 353 350 347 346 349 350 350 352 352 350 351
353 355 353 355 360 361 364 363 362 362 365 368 367 370 368 365 365 362 360 361 366 368 369 372 370 368 368 366 368 365 359 360 356 356 358 358 359 356 353 350 349 350 350 349 348 348 347 346 345 345 347 347 348 348 339 330 330 330 330 331 334 335 335 335 334 333 330 334 345 348 349 350 352 353 352 350 343 335 339 351 354 353 354 354 353 352 349 347 346 347 349 351 351 350 349 349 351
353 356 358 359 361 360 366 363 360 365 367 369 369 370 367 364 363 360 360 363 366 367 369 370 367 370 367 362 365 360 356 359 356 357 359 358 358 354 352 349 348 348 349 349 347 345 344 343 343 344 347 348 348 349 344 337 334 332 331 329 329 329 329 329 328 328 330 339 346 349 351 352 354 354 353 349 339 334 342 350 352 353 352 351 351 349 346 346 346 348 350 350 350 350 348 348 351
353 359 362 364 368 366 368 365 363 369 367 366 366 365 363 361 360 360 362 365 368 366 369 370 366 368 365 361 367 361 354 358 357 358 359 358 356 353 351 349 349 348 347 346 345 343 344 345 346 348 349 349 348 347 345 342 341 340 339 337 334 333 331 330 329 330 336 344 348 350 352 353 354 353 349 342 333 336 346 350 351 352 350 349 348 347 346 346 346 349 350 349 349 349 348 349 351
353 360 364 364 370 367 365 364 365 369 368 366 365 364 361 360 360 360 362 366 367 367 371 372 368 368 364 362 366 362 357 358 358 358 358 357 355 353 351 350 350 349 346 341 343 346 348 349 349 351 351 351 350 348 347 344 343 343 343 343 343 343 342 341 339 341 344 348 350 350 352 353 352 346 340 335 333 342 349 351 352 350 348 347 346 347 346 345 346 348 348 348 347 347 348 349 350
358 360 363 366 367 363 360 362 366 370 368 366 366 364 361 359 360 360 363 367 368 370 370 368 369 368 365 364 364 362 360 358 358 359 357 357 355 353 352 350 350 348 344 341 345 350 351 351 350 351 352 352 351 350 349 347 346 346 347 348 348 349 348 348 348 350 350 351 351 352 351 349 345 338 334 335 340 347 351 352 351 348 346 347 347 347 345 344 345 348 348 347 346 347 349 349 350
365 363 363 366 363 357 356 360 366 372 368 366 366 363 363 361 360 360 363 366 367 369 369 368 369 367 365 366 366 361 359 358 358 358 357 356 354 353 352 352 351 346 343 343 347 351 352 352 351 351 351 351 351 351 350 349 349 351 353 353 353 352 352 352 351 352 352 353 352 350 346 340 337 334 336 341 347 350 350 349 348 346 347 347 347 345 343 343 345 347 347 347 347 348 349 349 350
366 368 367 364 361 360 361 362 366 371 368 367 368 365 362 361 361 361 363 367 368 369 368 370 369 366 364 364 362 356 355 358 358 357 357 355 353 353 353 354 353 348 345 347 350 352 353 353 352 352 352 351 351 351 351 350 351 353 353 353 354 353 353 352 353 353 353 351 346 341 337 335 336 338 342 346 347 348 347 347 346 347 348 347 345 344 343 344 345 347 347 347 347 348 348 349 350
367 368 368 365 364 365 364 364 366 368 371 372 369 366 362 361 363 364 367 369 369 369 369 369 368 368 365 361 358 357 358 357 357 357 356 355 353 354 355 355 353 350 348 350 352 353 353 353 353 352 352 351 351 351 350 351 352 352 352 353 353 353 353 353 353 352 348 343 339 338 338 339 341 344 346 346 346 347 346 346 345 345 345 344 343 343 344 345 347 347 347 347 347 347 347 348 349
367 365 366 367 366 368 365 365 367 364 372 375 366 364 363 362 362 364 368 370 370 370 370 365 368 370 365 360 358 359 358 355 357 358 356 356 355 357 358 356 354 352 351 352 353 353 353 353 353 353 352 351 349 348 349 349 349 349 350 350 351 351 349 348 346 344 342 341 342 343 344 345 347 348 347 346 346 346 345 344 344 344 343 342 342 344 346 346 347 346 346 346 345 345 345 345 345
365 365 366 368 365 366 365 366 367 362 370 374 365 364 363 362 362 364 368 369 369 367 366 364 366 371 364 360 358 355 354 353 356 356 356 357 357 359 358 357 356 353 353 354 354 354 353 353 352 352 351 348 345 345 344 344 344 345 346 346 346 346 345 343 343 344 346 347 348 349 349 349 349 349 348 346 345 344 343 343 343 343 343 344 345 346 346 345 344 344 344 344 344 344 345 345 346
364 365 367 369 363 362 366 368 366 365 371 370 364 365 364 364 363 366 367 366 367 361 365 368 365 370 368 362 357 353 353 354 355 356 357 359 359 359 358 358 357 355 355 356 356 356 354 353 352 350 348 346 345 343 341 342 343 345 345 345 346 348 349 349 350 351 351 351 351 351 351 350 349 347 346 344 343 343 343 344 344 344 345 347 347 347 345 344 344 344 344 344 346 347 348 349 350
364 367 371 367 364 363 366 368 365 367 373 369 365 364 365 367 363 364 365 363 366 363 366 368 363 367 371 365 357 354 354 353 354 357 359 359 358 357 357 357 356 356 356 357 357 356 355 353 351 349 347 346 345 343 343 344 346 348 347 350 352 353 353 353 353 353 353 353 351 349 348 347 345 343 343 343 343 344 345 347 347 347 347 347 346 345 344 344 345 345 346 347 349 350 351 352 352
366 371 371 364 366 369 367 366 362 365 371 370 367 363 362 366 365 364 366 365 365 366 368 367 365 367 366 361 356 354 353 353 355 358 358 358 358 356 356 357 356 356 356 357 357 356 355 353 351 349 347 346 344 343 344 345 348 351 349 351 354 353 353 353 352 351 349 349 347 346 346 345 344 343 345 346 347 348 348 349 349 348 347 346 345 344 344 346 347 348 349 350 352 352 353 352 352
368 371 370 367 371 370 365 364 361 362 369 370 366 362 361 364 365 364 367 367 364 367 370 368 370 369 364 357 354 353 352 354 356 357 358 357 357 356 356 356 356 355 356 357 356 356 354 352 351 350 348 346 344 344 345 345 349 351 348 349 351 350 351 350 348 346 345 344 345 346 346 345 345 347 348 349 350 350 349 349 349 349 348 346 346 345 345 348 349 350 352 353 354 353 354 353 351
369 368 371 375 375 365 359 362 363 361 365 368 367 364 363 362 363 365 366 366 365 367 368 368 370 369 367 360 355 353 352 354 356 357 357 356 357 357 356 356 355 355 355 355 356 356 354 352 351 349 347 346 345 345 346 346 348 350 348 346 346 346 346 346 344 344 345 345 346 347 346 346 347 349 349 350 352 350 349 349 350 349 350 349 348 348 347 349 351 352 354 354 354 354 354 352 350
368 368 376 378 373 365 357 360 363 360 362 367 367 365 364 363 361 365 367 366 367 366 365 367 367 366 368 363 357 353 352 354 356 357 356 356 357 357 356 356 355 355 354 354 355 355 354 351 350 349 347 345 344 344 344 346 347 347 345 344 343 343 344 344 345 345 347 348 348 347 347 348 349 350 350 350 350 348 348 350 350 350 350 350 349 350 349 350 352 352 352 353 354 353 352 351 350
366 369 375 371 367 365 359 359 361 360 362 363 365 367 365 363 362 364 366 366 367 364 362 365 365 365 366 362 358 354 352 354 355 356 355 355 356 356 356 355 355 354 354 354 353 355 354 351 350 349 346 342 341 342 342 343 344 342 340 341 343 344 346 346 346 347 348 349 350 348 348 349 349 350 350 349 348 347 349 349 350 350 350 349 350 351 350 351 351 351 352 352 353 352 350 350 350
368 372 370 367 368 367 360 357 361 360 361 365 366 368 365 364 366 364 364 366 366 364 362 365 366 363 362 359 357 355 353 353 353 354 353 354 354 355 355 354 355 354 354 354 354 354 354 352 349 348 347 346 346 344 341 341 340 339 338 340 344 347 349 348 348 349 349 349 349 348 350 351 351 352 352 351 350 350 350 350 350 350 349 349 350 351 350 350 350 351 351 353 352 352 350 350 350
367 372 373 369 372 373 366 358 359 357 361 367 363 365 366 366 367 364 365 365 365 367 364 365 364 360 361 361 358 357 355 351 351 352 352 353 354 353 354 354 354 354 354 354 354 355 354 352 348 348 350 351 353 350 346 342 339 338 338 342 348 351 351 349 349 350 349 349 348 348 350 352 353 353 353 352 351 352 350 350 351 350 350 350 350 350 350 350 350 351 351 352 352 351 350 349 349
369 372 376 373 374 377 373 363 358 357 361 363 361 369 371 366 365 364 365 364 363 366 365 367 366 362 364 364 362 360 357 352 350 351 351 352 353 352 353 353 352 353 354 354 354 355 353 350 349 351 353 354 354 353 351 347 340 338 339 344 351 352 351 350 351 352 350 348 347 348 351 353 354 353 352 352 352 351 350 350 351 350 350 349 349 350 350 349 350 350 350 351 352 350 349 348 348
373 373 374 371 369 370 372 370 368 365 361 361 367 375 371 364 364 366 366 365 366 367 366 368 367 365 366 366 365 361 357 354 349 350 351 351 351 351 351 351 350 352 353 354 354 353 351 350 352 353 353 354 354 352 353 348 340 339 341 346 351 352 351 350 352 354 352 349 346 348 352 352 352 352 351 351 351 351 350 351 350 349 349 349 349 349 349 349 349 349 349 350 351 350 349 349 349
370 368 370 369 368 367 368 371 372 370 362 365 375 374 368 365 367 373 371 367 368 367 368 367 365 365 364 366 367 361 357 355 350 349 349 350 351 350 350 349 348 349 351 352 353 352 352 352 353 353 353 353 353 352 351 344 339 341 344 347 350 351 350 352 355 355 355 352 348 349 351 351 351 351 351 351 351 351 349 350 348 347 348 348 349 349 350 350 350 349 349 350 350 350 349 348 349
367 366 367 368 367 366 369 372 373 372 367 371 378 372 368 365 370 379 373 368 368 367 368 366 364 364 362 366 368 364 359 354 351 350 348 349 350 348 348 348 347 347 349 350 351 350 351 352 352 352 353 352 351 350 349 343 341 346 348 349 350 351 351 354 356 356 356 353 350 348 349 350 351 351 351 352 352 350 349 349 348 346 347 348 349 349 350 350 351 350 350 351 349 349 349 348 347
361 364 365 369 369 369 376 378 378 375 370 373 372 368 370 368 372 377 368 367 369 367 368 365 364 363 362 365 365 364 360 353 352 351 348 347 348 347 347 348 347 347 347 348 350 349 349 350 350 351 352 352 350 349 348 345 344 349 352 349 350 352 353 355 356 356 355 353 351 350 349 350 351 352 351 352 351 348 348 349 348 348 349 349 349 349 350 350 350 350 350 350 349 348 348 348 347
357 363 364 366 364 372 383 376 376 375 370 375 370 363 372 374 371 370 365 368 370 368 368 364 366 364 363 365 362 363 359 353 354 352 348 347 346 346 347 348 348 347 347 348 348 348 348 348 348 349 350 350 349 347 348 346 344 350 353 349 350 352 353 355 356 355 353 352 352 350 350 349 350 351 351 351 351 348 348 349 349 350 350 349 349 349 349 349 349 348 348 349 348 348 347 346 345
359 361 365 365 350 367 397 378 375 377 368 377 373 362 374 380 370 367 365 367 368 368 367 363 365 365 365 364 360 362 360 354 354 353 350 348 346 346 347 348 348 348 348 348 349 348 347 348 347 347 348 348 347 346 347 345 345 350 353 350 351 352 353 354 355 354 352 352 352 351 351 349 348 350 351 351 351 348 349 350 350 350 348 348 347 348 348 347 347 347 347 348 347 346 346 344 344
365 350 357 367 348 364 398 378 376 383 373 376 370 362 374 378 368 366 365 365 367 366 363 358 361 366 366 365 361 360 359 355 353 354 352 350 348 346 347 348 348 348 348 348 348 347 347 346 346 347 347 346 346 347 346 345 347 352 353 351 351 351 352 353 352 352 352 351 351 351 352 348 347 348 350 351 351 349 350 351 352 350 347 348 347 347 347 347 347 346 346 347 347 346 345 345 345
366 352 348 359 350 354 373 369 371 379 376 376 370 369 379 379 368 366 365 365 366 366 364 359 360 365 364 365 363 361 360 357 354 353 352 351 349 346 346 347 347 348 348 347 348 346 346 346 346 346 345 345 345 346 346 347 350 353 352 351 351 351 352 352 349 350 350 351 351 351 351 349 346 345 348 350 351 351 352 353 352 350 348 348 348 347 348 347 346 346 345 346 347 346 346 348 347
359 358 348 355 356 347 354 365 368 370 375 379 376 378 382 376 369 365 366 366 365 366 365 360 362 364 362 362 361 360 360 358 355 353 352 352 350 348 346 346 347 347 347 347 347 346 346 345 345 346 344 343 343 345 347 349 351 353 351 351 351 351 351 351 349 349 349 350 351 351 350 349 345 344 348 348 348 350 352 352 352 350 349 349 348 347 347 346 346 346 346 347 348 347 348 349 349
351 351 345 353 358 348 350 359 364 370 376 382 379 377 377 372 367 366 365 365 365 364 362 360 362 363 362 360 358 359 360 358 355 353 352 353 352 350 347 346 347 347 346 347 346 345 345 345 345 345 344 341 341 344 348 350 352 352 352 352 352 351 349 349 349 349 348 348 349 351 350 347 346 346 348 347 346 350 351 350 351 350 349 348 347 347 346 346 347 347 347 348 349 349 349 349 349
348 351 353 352 347 346 355 356 361 369 374 383 382 375 377 371 367 367 364 365 364 361 361 360 359 360 360 359 358 359 361 358 355 353 353 353 353 351 347 346 346 346 346 345 344 344 344 345 345 344 342 341 341 345 349 350 350 351 352 353 352 350 348 348 349 348 347 348 347 349 349 346 347 349 349 348 345 347 348 349 351 350 347 346 345 346 346 346 347 347 347 348 350 350 349 348 348
345 350 355 351 341 345 356 354 356 361 363 372 377 376 378 372 367 366 363 365 364 360 360 360 359 359 359 359 359 361 362 359 355 354 354 353 353 350 347 346 347 346 345 344 343 344 344 344 344 343 341 340 342 346 348 347 348 349 351 352 352 350 347 347 349 347 346 346 346 347 346 345 349 352 352 350 344 343 347 349 350 348 347 346 346 347 347 347 346 346 347 348 349 350 348 348 348
345 345 346 344 341 345 351 351 351 353 360 365 372 378 376 372 368 365 363 364 364 361 361 361 360 360 359 359 360 362 362 360 359 357 355 354 353 351 348 346 346 346 343 343 343 344 344 343 342 342 340 340 342 344 345 346 346 348 349 349 350 349 346 344 346 346 345 345 344 345 344 345 351 354 353 351 345 344 347 349 348 347 346 346 347 347 346 346 345 347 348 348 349 349 349 347 347
343 345 341 337 343 348 347 352 350 347 362 368 370 376 374 372 369 365 364 365 363 362 361 361 362 362 361 361 361 362 362 361 361 359 355 355 354 352 350 347 346 346 344 343 343 344 344 343 342 341 339 340 343 344 345 346 347 347 348 348 347 346 343 341 343 345 346 345 344 344 345 347 352 353 353 351 346 344 346 347 347 347 346 347 347 346 345 345 345 347 347 349 349 349 350 348 348
342 345 337 334 346 344 338 350 356 354 367 373 371 373 372 373 371 367 364 363 364 363 362 362 362 362 362 361 361 361 361 360 360 358 356 354 353 353 352 348 346 345 344 344 344 344 343 341 341 340 339 340 342 344 344 345 346 347 347 347 344 343 342 342 344 346 347 347 345 347 348 349 351 352 351 349 345 344 346 346 346 347 347 348 348 346 345 345 346 347 347 348 348 349 351 350 352
342 345 337 337 344 342 338 349 363 367 369 374 373 365 366 373 372 371 366 363 366 364 364 364 362 362 362 361 361 360 360 360 359 357 355 353 352 352 352 349 346 345 344 343 344 343 342 340 340 340 339 339 343 344 342 343 345 347 346 345 345 345 344 343 345 346 347 347 348 349 350 350 351 352 350 347 344 345 346 346 346 347 347 348 348 346 345 345 346 347 349 348 347 350 353 352 356
337 345 344 342 345 345 343 346 357 360 356 368 366 346 351 370 373 373 369 366 367 363 364 364 362 362 361 362 361 360 360 359 357 356 355 354 352 351 352 349 345 345 344 343 343 343 343 341 340 340 338 339 343 344 342 342 344 346 345 345 349 348 344 344 345 346 346 347 348 350 350 350 350 352 351 347 344 345 346 346 346 346 347 348 346 346 344 345 347 349 352 353 353 356 357 357 359
330 348 350 345 347 344 343 342 339 341 347 364 360 338 342 358 366 373 371 368 369 364 363 363 361 361 360 362 361 359 360 359 356 356 355 355 352 351 351 349 345 344 344 343 343 343 343 341 339 339 338 339 342 342 342 341 342 345 344 345 351 350 344 343 344 345 346 347 349 350 350 350 349 350 349 345 344 345 345 345 346 346 347 348 346 345 344 346 352 356 358 359 359 360 360 359 357
335 357 352 342 346 341 343 340 330 338 349 353 355 350 349 352 361 373 372 369 371 367 365 363 360 360 359 361 360 359 359 358 358 356 355 355 353 351 351 350 346 343 344 343 342 342 342 341 339 338 338 338 341 342 339 340 342 344 344 346 353 351 345 343 343 343 347 348 349 350 349 349 349 348 345 343 344 345 345 345 346 347 348 348 346 345 347 353 359 361 360 360 359 358 355 352 348
346 359 346 341 344 342 345 339 332 339 339 334 343 349 346 348 361 373 372 370 371 369 367 364 361 360 359 360 359 359 358 358 359 357 355 354 352 351 350 350 346 343 344 342 341 342 341 340 339 338 339 339 341 343 339 339 342 345 346 348 352 352 347 345 343 344 348 349 349 349 349 349 349 347 344 343 344 344 344 345 346 348 348 347 346 349 354 359 362 360 359 357 355 353 350 346 343
347 345 342 345 344 344 344 336 331 331 328 330 339 340 339 344 359 370 370 369 371 371 367 364 363 361 359 360 358 358 358 358 359 357 354 353 352 352 350 350 347 343 343 342 341 342 341 340 339 339 341 340 341 344 341 341 342 345 348 349 350 351 350 348 346 347 348 348 348 348 348 348 349 347 343 343 344 344 345 345 345 347 347 347 350 354 358 360 360 358 356 354 351 349 346 343 342
342 342 344 342 341 347 349 345 339 331 331 338 339 337 336 338 351 366 368 369 371 372 369 364 363 362 360 360 358 357 358 359 359 357 354 354 352 351 351 349 347 344 342 342 342 341 341 341 340 340 341 341 343 344 342 342 342 345 349 349 347 350 351 349 348 348 348 348 348 348 347 346 346 346 344 343 344 344 345 344 345 346 347 350 355 358 359 358 357 356 353 349 346 343 342 341 340
338 347 342 332 337 348 348 350 347 335 335 340 339 338 335 334 349 366 367 368 368 369 370 366 363 363 361 360 358 357 358 358 359 358 356 355 353 352 351 348 346 344 341 342 343 341 341 341 341 342 343 343 344 345 345 343 341 344 350 349 346 349 352 349 348 348 347 347 347 347 345 344 345 345 344 344 344 344 345 344 345 347 351 356 358 358 357 356 355 353 349 344 341 339 339 339 338
335 343 336 325 332 339 339 340 339 334 335 336 336 338 338 340 358 370 367 366 365 365 368 365 363 363 362 361 360 357 358 357 357 358 357 356 354 352 350 348 346 344 342 342 343 342 341 341 341 343 345 345 344 345 347 344 343 346 350 348 346 350 352 351 350 349 348 349 347 346 345 345 346 346 345 344 344 344 344 345 346 349 355 359 358 357 355 354 353 350 345 340 338 337 337 337 336
332 333 330 327 331 332 336 339 333 333 336 335 335 338 336 340 358 370 367 361 361 363 364 364 362 362 361 360 360 358 358 358 357 357 356 355 354 352 351 349 346 345 343 342 342 342 342 341 341 342 344 346 346 347 348 345 346 349 351 350 348 350 351 350 352 352 350 349 347 347 346 346 345 345 345 345 344 343 344 346 349 353 358 359 357 355 353 352 350 346 341 337 337 336 336 336 335
337 341 340 333 332 331 335 339 332 331 335 333 334 336 334 340 354 365 364 358 361 361 361 364 361 360 361 359 360 360 358 358 358 357 355 353 353 352 351 349 348 346 343 342 343 342 341 342 341 341 341 344 346 348 348 347 348 350 352 350 348 349 350 350 353 354 351 348 346 346 346 347 347 344 344 344 343 344 349 352 355 357 358 357 354 352 351 349 345 341 337 336 336 336 336 335 334
338 345 340 332 337 337 332 334 331 328 331 332 332 334 342 353 360 362 362 361 363 362 362 364 362 361 361 360 361 360 358 358 358 358 356 352 352 352 351 350 349 348 345 342 342 342 341 341 342 341 340 342 346 348 349 349 350 351 352 350 348 348 349 352 356 354 352 349 347 347 346 346 346 343 343 343 344 349 355 357 357 356 355 353 351 350 348 345 339 336 335 335 335 335 334 333 331
339 335 332 338 345 338 326 328 333 330 331 334 332 333 342 353 360 362 363 361 361 364 366 364 362 362 361 361 361 360 359 357 357 359 356 353 353 352 352 352 350 349 348 344 342 342 342 341 342 341 341 343 346 348 349 352 352 353 352 349 346 346 349 354 356 355 353 351 349 349 348 346 344 344 343 345 350 355 357 357 355 353 352 350 350 348 343 338 334 334 335 335 335 334 332 330 330
340 329 335 346 344 340 332 327 333 335 333 333 332 333 335 339 348 358 359 361 363 366 367 365 363 363 362 362 361 360 360 357 357 359 357 354 353 353 353 352 351 350 351 347 342 342 342 342 343 342 342 345 347 349 350 352 354 354 353 350 347 347 351 355 355 353 353 351 350 349 350 350 348 346 346 350 355 357 355 354 352 352 351 350 348 343 336 334 334 335 335 335 334 331 330 330 330
341 334 345 348 332 330 330 325 328 330 329 332 332 332 334 337 346 353 355 361 366 366 368 367 364 363 362 361 360 360 360 360 358 358 357 356 354 354 353 352 352 351 351 349 344 342 342 343 343 342 342 344 345 348 351 352 354 355 355 354 351 350 352 353 351 351 352 351 349 350 351 350 347 346 349 354 356 355 354 353 352 351 350 349 345 338 333 333 334 335 334 333 332 330 330 330 330
337 333 341 348 334 326 326 326 329 326 326 332 331 327 333 345 354 357 358 359 363 367 369 367 365 363 362 361 360 361 362 364 363 358 357 357 354 354 353 352 352 351 351 350 345 342 342 344 345 344 344 346 348 351 353 353 353 354 356 357 356 354 353 350 348 349 351 350 349 350 349 346 346 350 353 356 355 354 354 353 351 350 349 346 340 334 333 334 335 335 334 332 331 330 330 331 330
329 327 328 330 330 328 326 325 326 326 330 336 334 327 332 351 357 354 359 358 358 366 368 365 364 363 362 361 360 361 361 361 364 362 357 356 355 354 353 352 352 351 350 349 346 342 342 345 347 346 346 350 352 354 356 356 355 354 357 358 357 357 355 353 350 347 347 346 346 348 347 345 351 355 356 355 354 354 353 351 350 349 347 342 336 333 334 335 335 334 332 331 331 330 330 331 331
330 331 328 326 328 327 323 323 325 328 330 333 334 328 330 348 354 349 356 359 357 363 366 364 364 362 361 362 360 361 358 355 360 361 357 356 355 354 353 352 351 351 350 349 346 343 343 346 348 347 347 350 353 356 357 358 357 356 357 357 357 356 356 356 354 350 346 345 346 348 347 348 353 355 355 354 353 353 352 350 349 347 343 337 333 334 335 335 334 333 332 331 331 331 331 331 331
Wind_Speed
22 22 21 20 18 14 6 1 1 1 1 1 2 1 1 1 1 2 3 4 2 3 3 5 5 2 2 3 6 4 2 5 4 4 2 5 28 34 26 29 34 34 34 31 29 28 26 26 24 23 21 22 24 22 21 20 20 21 19 18 18 17 16 15 14 14 14 14 13 12 11 10 10 9 8 6 6 5 6 6 6 7 6 5 4 4 4 5 5 6 8 7 6 6 7 8 8
20 18 17 16 14 7 1 0 1 1 1 1 2 1 1 1 1 2 2 2 0 1 2 4 1 2 1 4 4 3 4 3 4 4 3 20 32 25 27 33 35 35 34 33 30 29 27 26 24 23 21 22 23 22 21 20 20 20 20 19 18 17 16 15 15 14 13 12 11 10 9 9 9 8 6 5 4 4 4 5 5 6 5 3 3 3 4 4 4 5 7 7 7 6 7 8 8
16 15 15 14 7 1 1 1 1 1 1 2 2 1 0 0 2 1 1 1 2 3 2 2 2 3 2 5 4 3 2 3 10 8 8 25 24 20 32 35 35 35 34 34 31 30 29 27 25 24 22 22 23 22 21 21 21 20 21 20 18 18 16 15 14 12 11 10 10 9 8 8 8 7 6 5 4 4 4 5 6 5 3 2 2 2 3 3 4 6 7 7 7 7 8 8 9
14 15 15 9 1 2 1 0 1 1 1 1 3 1 1 1 2 0 0 3 3 4 3 1 3 1 2 6 3 4 5 3 9 11 11 19 21 28 36 36 36 34 34 34 31 31 29 28 26 25 23 22 22 22 21 21 21 21 21 20 19 17 16 15 13 12 10 10 9 8 8 8 8 6 4 4 3 3 4 5 5 4 2 1 1 2 3 4 5 7 7 8 8 8 9 9 9
12 12 10 4 1 1 1 0 1 1 1 1 2 1 0 0 1 0 2 3 3 3 3 1 2 0 1 3 1 3 6 5 7 11 15 18 27 37 36 37 37 34 35 33 32 31 29 28 26 25 23 22 22 21 22 21 21 21 21 20 19 18 16 15 13 11 10 10 9 8 8 7 7 5 4 3 2 3 4 5 4 3 2 1 1 2 3 5 7 8 8 8 8 8 8 9 9
9 8 5 1 0 1 0 1 1 2 2 2 2 1 1 1 1 2 3 3 3 3 3 1 1 2 2 2 2 2 5 8 8 11 19 25 34 38 37 38 35 34 34 32 32 30 29 28 26 25 24 22 21 20 21 21 21 20 20 19 18 18 16 15 14 12 12 11 9 8 8 7 7 6 5 3 3 4 5 5 3 2 1 0 2 4 6 7 8 8 8 7 7 8 8 9 9
5 3 1 0 0 1 0 1 3 3 1 2 1 3 2 2 2 3 2 2 2 3 3 1 2 4 3 1 2 2 1 6 11 15 22 31 38 38 38 37 34 33 32 33 32 30 29 26 25 25 24 23 22 21 21 21 21 20 19 18 18 17 16 15 14 13 13 11 10 9 8 8 7 6 5 4 3 3 4 3 1 0 1 3 4 6 7 8 7 7 7 7 7 7 8 9 9
3 1 0 1 1 1 1 2 3 1 0 1 1 3 1 1 2 3 1 2 1 2 2 2 1 5 2 2 1 3 2 9 18 25 28 34 40 39 38 36 33 32 31 33 31 30 27 25 25 24 24 23 22 21 20 21 20 19 19 18 18 17 16 15 14 14 13 12 10 9 9 8 7 6 5 3 2 2 2 0 0 1 3 4 5 6 7 7 7 6 6 7 7 7 8 9 9
2 1 0 1 1 2 1 3 2 1 1 1 2 2 1 3 3 2 2 2 1 0 2 3 2 4 3 1 4 3 5 24 29 31 31 34 40 38 37 35 34 32 32 33 32 30 26 26 25 24 24 23 22 21 20 20 19 19 18 18 17 16 15 15 14 14 13 11 10 9 9 8 7 6 4 3 3 3 1 1 2 3 3 4 5 6 6 6 6 6 6 7 7 8 8 9 9
2 2 1 1 1 2 3 3 3 2 2 2 3 2 1 4 4 2 3 2 2 1 1 2 4 5 5 4 4 3 10 33 33 30 30 35 37 36 36 34 34 34 33 34 32 29 27 26 24 24 24 22 22 20 20 19 18 18 17 17 16 15 15 14 13 12 12 11 10 9 8 8 7 5 4 4 4 3 2 2 3 3 4 5 5 6 6 6 6 6 6 7 8 7 8 9 10
1 2 1 1 2 2 2 3 4 3 3 3 2 1 2 2 5 3 2 2 1 2 1 1 3 5 5 3 2 4 12 34 32 30 31 33 34 33 34 31 32 34 35 35 32 30 27 26 24 24 23 23 22 20 20 19 18 17 16 16 15 15 14 13 13 12 11 10 9 8 8 7 6 5 5 5 4 3 3 3 4 4 5 6 6 6 6 6 6 7 7 7 8 8 7 9 11
1 1 1 2 2 1 1 3 4 5 3 3 1 1 2 1 4 5 5 4 2 2 1 1 2 3 5 3 1 6 11 31 31 31 32 31 32 31 31 30 31 33 35 34 32 30 27 26 25 24 23 22 21 20 20 18 18 17 17 16 14 14 13 13 12 11 10 9 9 8 7 6 6 5 5 4 4 3 4 4 5 6 6 7 7 7 6 7 7 7 7 8 8 8 8 8 10
2 0 1 1 2 2 2 3 3 5 3 1 1 1 2 1 2 4 6 5 3 4 0 1 1 2 5 4 1 5 5 22 30 32 31 30 31 29 29 29 31 32 34 33 31 30 28 26 25 23 22 21 20 19 19 18 17 16 16 16 15 14 13 12 11 10 9 9 9 8 7 6 6 5 4 4 4 5 5 5 6 6 7 7 7 7 7 6 7 7 8 8 9 9 9 9 9
2 1 0 1 2 1 3 3 3 4 3 1 0 2 2 0 1 3 3 5 3 3 0 1 1 3 6 4 2 0 3 17 29 31 30 30 30 28 29 30 31 32 33 31 30 29 28 27 25 23 22 21 20 19 18 17 16 16 15 15 14 13 12 12 11 10 10 9 9 7 7 6 6 5 5 5 6 6 6 6 7 7 7 7 7 6 6 7 7 7 7 8 8 9 10 10 9
3 1 1 1 1 2 2 3 3 3 3 2 1 2 2 1 1 3 1 4 1 1 1 1 1 1 6 6 5 6 13 23 28 29 30 30 29 28 28 29 29 30 31 29 28 28 27 26 25 24 23 22 21 19 18 17 16 16 15 15 14 13 12 11 11 10 10 9 8 7 7 6 6 6 6 6 7 7 7 7 7 7 7 7 7 7 6 6 6 6 6 6 7 8 9 10 9
2 2 1 2 1 1 2 2 3 3 4 3 1 2 1 1 1 1 3 1 1 1 1 1 1 1 4 6 10 15 23 28 27 29 31 30 29 28 26 26 26 27 27 26 26 26 26 26 26 25 24 22 21 20 19 18 17 16 15 14 13 12 11 11 10 10 9 8 7 7 7 7 8 7 7 7 7 7 7 7 7 6 6 7 7 6 6 5 5 5 5 5 6 7 8 8 8
2 2 2 2 1 2 1 2 2 2 3 4 2 1 1 1 1 1 3 2 3 1 2 1 2 2 2 5 15 25 30 30 27 30 31 28 27 25 24 24 25 25 24 24 25 26 26 26 26 25 24 22 21 21 20 19 17 16 16 14 13 12 11 11 10 10 9 9 8 8 8 9 9 8 7 7 6 7 7 6 6 6 6 6 6 5 5 4 4 4 4 4 5 6 7 8 7
1 2 2 1 2 2 3 4 4 2 4 5 2 2 3 1 1 0 1 3 3 2 3 2 2 1 1 7 18 29 30 29 29 30 27 25 24 22 22 23 24 24 23 23 23 25 26 26 26 25 24 23 22 22 21 20 17 16 16 15 13 13 12 12 11 11 11 10 10 9 9 9 8 7 7 6 6 6 6 5 5 5 5 5 4 4 4 4 4 4 4 4 5 5 6 7 7
1 1 1 2 4 4 3 5 4 4 6 5 3 4 4 2 2 1 2 2 3 4 1 1 1 3 1 8 18 27 28 29 28 27 25 24 23 22 21 22 23 23 24 24 24 25 26 27 26 25 24 24 23 23 21 20 18 17 17 16 14 14 13 13 13 12 11 11 10 9 9 8 7 7 7 6 6 5 5 4 4 4 4 4 3 3 3 3 4 4 4 5 5 5 6 7 7
2 2 1 4 5 7 7 8 8 8 6 3 3 3 4 3 3 1 3 4 4 6 4 3 4 5 4 8 16 23 25 26 26 26 26 24 24 24 24 23 23 24 26 26 25 25 27 27 27 25 24 23 23 23 22 21 20 18 18 16 15 15 14 13 12 11 11 10 10 9 8 8 7 7 6 6 7 6 5 5 5 4 4 4 4 4 3 3 4 4 4 5 5 6 7 7 7
2 4 3 4 5 5 10 11 11 9 6 5 4 3 3 3 2 1 5 6 4 6 6 5 7 9 8 9 13 20 22 22 24 25 24 24 23 23 24 24 24 25 25 25 25 25 27 28 27 26 23 23 23 23 22 22 21 19 18 17 15 14 14 13 12 11 11 10 10 9 8 8 7 6 6 6 7 7 7 6 5 4 5 4 4 5 4 3 4 5 5 6 6 7 9 8 8
2 4 6 5 6 3 10 13 12 8 6 4 5 5 4 3 0 2 6 8 5 5 7 6 7 8 7 11 13 17 18 18 22 23 23 24 23 22 22 23 24 25 25 25 25 25 27 28 28 26 24 23 23 22 22 21 21 19 18 17 16 15 14 12 12 12 11 11 10 9 9 9 8 7 7 7 7 7 7 6 5 4 4 4 4 5 4 4 5 5 7 7 7 8 9 9 9
2 4 6 6 7 4 11 14 13 9 7 6 7 5 5 5 2 3 6 7 2 3 7 6 6 7 8 12 14 15 16 16 19 22 24 24 23 23 22 24 24 25 25 25 26 26 27 28 27 25 24 23 20 19 19 20 20 18 18 17 16 15 14 13 13 12 11 11 10 10 10 10 8 7 8 8 7 7 7 6 5 5 5 4 4 5 5 5 6 6 7 8 9 9 9 10 11
4 4 5 7 7 7 7 14 14 12 10 9 7 5 6 7 4 3 6 7 2 2 7 6 5 7 8 10 13 13 14 17 20 23 25 25 26 25 25 26 25 26 26 25 26 26 27 26 26 25 24 23 20 18 17 18 19 18 18 17 16 14 14 14 13 12 11 11 11 11 11 10 9 9 9 9 8 8 8 6 6 7 7 6 5 6 6 7 7 7 8 9 10 11 11 12 13
5 5 5 5 5 8 6 8 14 14 9 7 8 4 6 8 5 4 7 7 3 3 6 6 5 6 6 8 11 10 11 16 21 23 25 26 27 26 26 25 25 27 27 26 26 26 27 26 25 25 24 24 21 18 17 18 19 19 18 18 16 14 14 14 13 12 11 11 12 12 12 11 10 10 9 8 8 9 8 8 9 8 7 7 6 7 7 8 9 9 10 11 11 13 14 15 16
5 6 5 5 7 8 7 4 10 11 7 8 8 3 4 5 4 3 6 5 5 5 6 7 7 7 7 6 7 9 9 13 20 24 24 25 27 26 25 25 25 28 28 27 27 27 27 26 26 26 26 25 22 19 17 18 19 19 19 18 16 14 14 13 12 12 10 11 12 12 12 11 10 9 8 7 8 10 10 9 8 6 6 5 6 8 9 10 10 11 12 12 12 14 15 16 17
4 5 6 8 11 9 6 6 6 10 9 10 8 3 4 4 1 2 4 3 5 7 7 8 8 8 8 5 5 7 7 11 20 23 23 24 26 25 26 26 25 28 29 28 28 28 28 28 28 28 27 26 23 20 18 18 19 19 18 18 16 15 15 13 13 12 11 12 12 12 12 10 9 8 7 8 11 12 11 9 8 5 5 5 6 9 10 11 12 13 13 13 14 16 16 17 18
4 5 7 10 10 9 7 7 5 7 7 8 9 6 3 2 2 4 5 4 5 8 9 8 9 8 8 5 4 5 4 11 17 19 21 22 22 24 26 28 27 28 29 29 29 29 28 29 29 29 29 27 24 21 19 19 18 18 17 17 17 15 14 14 13 13 13 12 11 11 11 10 8 7 7 9 10 9 6 7 7 6 6 6 8 9 10 11 12 13 14 14 16 17 18 19 19
4 3 4 11 8 6 9 6 5 8 6 7 11 6 0 4 5 3 5 5 5 8 9 9 9 8 8 6 5 4 5 11 12 12 19 23 21 23 27 29 30 28 29 30 29 29 29 31 30 29 30 28 25 22 20 20 19 18 17 17 17 15 15 16 15 15 14 12 11 11 10 8 7 6 7 8 5 4 4 4 6 6 7 8 9 8 9 10 11 14 14 14 16 17 19 20 20
4 3 2 6 7 5 8 1 6 7 6 10 9 2 4 7 6 2 6 6 7 8 9 9 8 6 6 6 5 5 5 8 9 9 18 23 21 24 28 29 31 29 28 30 29 29 29 31 30 29 30 29 25 23 21 21 19 17 17 17 16 15 17 17 16 16 14 12 11 10 9 7 7 6 5 5 4 5 6 5 5 6 7 8 8 8 8 9 10 12 13 14 16 16 18 18 17
3 3 1 3 2 5 7 0 7 6 3 7 7 0 5 6 6 4 6 7 8 9 7 6 6 6 5 5 7 5 4 7 10 10 15 20 19 23 31 30 30 30 28 30 31 28 29 30 29 29 30 29 26 24 22 22 20 17 16 17 16 17 18 17 16 16 15 13 11 10 8 7 9 8 6 5 5 5 5 5 6 7 7 6 6 6 8 9 10 11 12 13 13 15 16 16 16
1 1 3 2 2 4 8 3 8 7 3 5 5 2 4 4 6 5 6 7 7 8 8 6 5 6 5 3 5 5 5 6 8 9 11 16 15 18 31 31 30 31 28 30 31 29 30 29 29 30 29 28 27 25 23 22 19 16 15 16 16 18 18 16 15 16 16 14 12 11 9 9 10 9 8 7 6 5 5 5 7 7 7 7 7 7 7 8 10 12 11 11 13 16 17 17 17
1 2 3 3 3 3 5 4 6 9 6 4 3 3 2 3 5 5 6 7 7 7 8 8 6 5 5 3 2 2 5 5 6 11 15 15 15 15 28 32 31 33 30 30 30 30 31 30 30 31 29 27 26 25 24 22 19 16 14 15 16 18 17 16 16 15 16 15 14 13 11 11 11 12 11 9 8 7 6 6 7 6 6 8 9 8 8 9 11 13 12 12 15 16 17 17 17
3 1 3 4 4 3 3 5 3 9 9 5 4 4 2 3 6 7 7 7 8 7 7 7 5 5 4 4 4 3 5 6 7 14 19 18 18 17 24 32 32 34 33 30 30 31 31 30 31 31 29 26 23 24 24 22 19 16 15 15 16 17 17 16 16 15 15 16 16 15 13 12 12 12 12 11 9 9 7 7 7 6 7 9 9 9 9 9 11 12 14 15 14 14 16 17 17
3 2 2 4 3 3 5 5 2 10 8 5 6 4 2 5 7 7 7 7 8 7 7 6 5 5 5 4 6 6 6 7 8 17 21 20 20 19 22 30 31 33 32 30 30 31 30 31 32 30 28 26 24 23 23 21 18 16 16 16 17 17 16 16 17 17 15 16 18 18 16 13 11 11 12 10 8 9 8 7 6 6 7 8 9 10 11 12 12 13 15 17 17 16 16 17 18
4 4 4 4 4 4 6 5 6 11 6 5 8 5 5 8 8 8 8 7 7 6 5 5 5 5 5 5 6 7 7 7 10 18 20 19 20 19 20 29 31 31 29 30 30 30 30 32 32 30 28 26 25 25 24 22 19 18 18 18 19 18 17 17 18 19 17 17 19 19 17 14 11 9 8 7 8 10 9 6 6 6 7 8 9 11 13 14 13 15 16 18 19 19 19 19 18
7 5 4 5 5 5 6 6 6 10 6 5 7 5 7 9 9 9 9 7 7 8 7 6 6 6 6 7 8 7 7 7 11 15 18 19 19 17 18 26 31 29 27 30 31 30 32 33 33 31 27 26 27 28 27 24 20 20 21 21 22 20 19 19 19 20 19 20 21 19 18 15 11 8 6 6 6 9 9 7 7 6 6 8 10 12 14 14 13 15 16 18 20 20 20 20 20
10 8 6 6 4 6 8 6 3 9 5 4 6 7 6 8 9 8 9 9 9 10 10 9 9 8 7 8 9 7 6 7 8 9 13 18 17 16 18 23 27 26 26 30 31 32 34 34 34 32 28 27 28 28 27 24 21 21 23 22 21 21 21 20 19 18 17 20 23 20 17 15 12 9 6 6 6 8 9 7 7 6 6 7 10 12 14 15 14 14 15 17 20 20 20 20 21
10 8 5 4 4 4 7 6 2 7 3 3 7 7 5 6 8 9 11 11 9 9 11 11 11 11 9 9 9 7 7 8 7 6 9 14 15 16 18 21 24 24 27 31 31 32 34 34 35 33 29 28 28 27 26 24 22 21 22 20 19 19 19 18 16 14 12 16 22 20 17 15 13 11 7 6 7 9 8 7 6 6 7 9 11 13 15 15 14 15 16 19 21 21 19 18 20
7 6 4 4 4 2 3 4 2 3 2 4 7 6 3 3 5 7 10 9 6 7 8 8 10 11 11 11 10 9 9 10 10 7 6 11 13 15 16 20 24 22 26 31 30 31 33 34 35 34 31 29 28 27 25 24 21 20 21 19 17 17 16 15 14 11 8 13 18 18 16 14 12 11 7 6 7 8 8 7 7 7 9 10 12 14 15 14 14 17 19 20 20 18 16 15 17
5 6 6 4 5 4 4 2 2 5 5 5 9 6 1 3 5 6 6 6 5 7 7 6 8 9 8 9 9 10 9 10 12 10 8 11 13 14 16 19 24 23 25 30 30 31 33 34 35 34 33 30 29 27 25 24 20 19 20 18 16 16 16 16 16 12 7 11 17 18 16 13 12 12 9 7 8 8 8 8 9 10 11 11 12 14 14 14 16 19 18 17 15 13 13 14 14
3 5 7 7 5 6 5 2 4 5 4 2 5 3 3 4 7 7 5 6 6 7 8 8 8 7 7 8 9 10 9 9 12 12 10 12 14 15 17 17 22 24 24 29 31 32 34 35 35 34 33 31 29 26 23 25 22 19 21 18 15 16 17 17 17 13 9 12 17 19 16 13 13 13 11 10 9 9 10 10 11 12 12 12 13 14 14 15 18 18 14 11 11 10 10 11 12
2 5 6 6 4 4 6 4 2 2 2 5 5 3 2 3 5 7 7 8 7 7 9 10 9 9 9 9 9 9 9 9 11 13 12 12 13 14 16 16 20 23 24 28 31 31 34 36 35 35 34 31 28 24 23 25 24 21 21 18 14 17 20 18 17 15 13 15 19 18 16 14 14 14 13 12 11 11 12 11 12 12 13 13 14 14 15 16 15 12 9 9 10 9 9 9 11
2 7 5 4 3 4 7 6 3 3 1 2 5 4 3 2 5 6 9 8 7 8 10 10 10 11 11 11 10 9 11 10 10 12 12 12 13 14 16 17 19 23 25 28 30 31 34 36 36 35 34 31 28 24 22 25 25 22 20 18 14 17 21 19 16 15 14 17 21 19 16 16 16 15 14 13 12 13 13 12 13 13 13 14 15 16 14 11 9 7 8 9 10 10 11 11 13
4 7 6 5 4 5 7 5 4 3 2 2 4 3 2 3 3 4 7 7 8 10 12 12 11 13 13 12 12 10 11 11 10 12 12 12 14 17 19 19 19 24 27 28 30 32 34 36 36 35 33 31 28 23 22 26 26 21 20 19 14 13 19 19 16 14 12 14 18 18 18 18 18 16 16 15 14 13 13 14 14 14 14 15 15 13 8 5 5 7 8 10 11 12 13 13 14
5 5 4 4 3 4 4 4 4 0 2 4 6 4 2 3 2 4 5 5 9 11 11 12 12 13 14 13 13 12 10 10 11 12 13 14 17 19 21 20 19 23 28 29 30 32 34 36 36 35 33 31 28 23 22 26 27 22 20 21 16 12 15 16 15 13 11 9 13 17 19 20 20 18 17 17 16 14 14 15 15 15 16 14 12 7 4 3 5 7 9 11 13 14 14 13 14
3 1 2 5 4 4 3 3 1 4 1 5 6 4 3 2 3 5 6 6 9 9 9 11 12 12 14 13 13 13 11 9 10 11 13 16 18 20 21 20 19 23 27 29 30 32 33 35 36 35 34 31 28 24 23 25 26 23 21 21 19 14 13 15 14 13 12 10 12 16 20 20 21 20 19 17 16 16 15 16 17 17 13 9 6 4 3 3 5 7 10 12 13 14 13 13 14
2 4 3 3 5 4 4 4 4 4 1 5 5 3 4 1 3 6 9 9 6 9 10 13 15 15 14 13 13 14 12 11 10 10 11 13 14 17 20 20 20 23 26 27 30 33 33 34 35 34 34 32 29 26 26 26 24 23 22 22 20 16 14 15 15 14 14 12 10 13 17 19 21 22 20 19 18 17 17 18 17 13 7 4 3 2 2 4 7 9 11 13 13 14 13 12 14
4 4 4 2 3 4 3 3 2 2 3 5 5 4 3 2 5 6 11 11 9 10 11 14 17 16 15 14 13 13 11 12 12 10 11 11 11 14 18 20 20 23 25 27 31 33 32 33 34 33 33 32 30 29 28 27 24 22 22 22 20 18 17 16 14 14 17 15 11 13 15 16 19 22 21 20 19 18 18 18 14 8 5 4 2 1 3 6 9 11 12 13 13 14 13 13 14
1 2 2 2 1 2 1 3 2 0 4 5 4 4 1 3 4 4 7 10 12 11 11 13 16 17 17 15 14 13 12 12 12 11 11 10 11 14 17 20 20 22 25 26 30 33 32 32 34 33 33 31 30 31 29 27 25 24 23 21 21 20 18 15 13 14 17 17 15 15 15 15 17 20 20 18 15 14 14 14 11 8 7 4 1 2 5 8 10 11 12 12 13 13 13 13 14
2 3 4 4 3 3 2 2 1 2 3 3 2 2 1 2 4 4 3 4 6 8 10 11 13 14 14 13 13 13 12 12 11 11 12 12 14 16 17 19 20 22 24 25 30 33 32 33 34 33 33 30 29 31 30 29 27 26 24 22 22 23 20 15 13 13 14 16 17 16 17 18 18 18 18 15 13 10 6 9 11 9 7 4 0 3 7 9 10 11 11 12 12 12 13 13 14
4 1 4 1 3 5 2 3 4 3 1 2 3 1 2 3 4 4 2 3 3 4 8 9 9 10 11 11 12 12 12 12 11 11 12 14 16 17 17 18 19 21 21 23 30 33 32 33 34 34 34 32 30 30 30 29 28 27 24 22 24 25 21 16 14 14 14 15 16 15 16 18 19 19 16 12 8 8 12 13 11 8 6 3 2 5 8 9 10 11 11 12 13 13 13 14 14
2 1 1 4 5 6 2 3 1 4 3 1 2 2 3 2 3 5 3 2 1 2 7 9 10 12 12 11 12 12 12 12 11 11 11 14 16 16 17 18 18 20 18 20 28 33 34 35 34 33 34 33 31 30 30 29 28 26 24 22 24 25 21 17 16 16 15 16 16 15 15 16 17 19 16 8 10 15 14 12 10 8 5 3 4 6 8 9 10 10 12 13 13 13 14 15 15
4 1 4 3 1 3 2 0 2 4 2 3 2 3 3 1 2 4 4 3 2 3 6 8 9 12 12 12 12 13 13 13 13 12 11 13 15 15 17 18 18 20 18 17 25 31 34 37 37 34 34 33 32 31 30 30 28 26 23 22 23 24 22 20 19 18 17 18 18 17 16 15 17 18 12 12 17 16 13 10 8 6 4 4 5 7 7 8 8 10 12 13 13 13 14 15 15
4 3 4 2 2 2 1 1 0 1 2 2 3 2 2 3 3 3 4 6 5 5 6 8 10 11 11 11 12 12 12 11 12 12 10 10 13 15 17 18 18 20 18 15 22 30 32 35 38 38 37 36 34 32 31 30 29 26 24 22 23 24 23 22 22 21 19 19 19 19 17 15 15 12 13 19 17 14 12 10 7 5 4 4 6 7 7 7 8 11 12 12 12 14 16 16 14
1 2 1 2 3 3 1 1 2 3 2 2 1 0 2 5 4 5 8 9 7 8 7 8 11 11 11 10 11 11 10 9 9 11 10 9 13 16 18 18 18 19 18 14 21 30 31 32 35 36 35 34 33 32 30 30 29 27 25 24 23 23 22 21 22 23 23 22 21 20 14 9 7 14 20 19 16 14 12 9 7 5 4 5 5 6 6 7 9 11 11 11 12 14 16 15 14
1 2 3 2 2 2 1 2 2 4 3 2 2 1 4 5 4 7 10 9 8 10 10 8 9 9 9 10 11 11 9 8 7 9 10 10 12 16 18 18 17 19 18 14 20 30 32 31 33 34 33 32 31 31 30 29 29 27 25 25 24 24 22 20 19 21 23 23 23 19 12 6 14 21 20 17 16 14 11 8 6 5 4 4 5 6 7 8 9 10 11 11 13 14 14 14 13
6 4 4 4 4 2 1 3 3 2 4 3 4 3 6 5 4 6 8 7 8 10 9 8 8 9 9 9 10 10 10 10 8 8 8 9 11 14 16 15 14 16 17 15 20 29 31 30 32 33 33 32 32 32 31 30 28 27 26 25 25 25 24 22 20 19 20 21 20 15 10 11 18 20 18 16 15 12 9 7 5 4 4 4 5 7 8 8 8 10 12 13 12 11 12 12 12
Wind_Direction
121 124 129 135 140 139 127 80 110 188 185 250 246 261 257 167 137 186 202 225 178 128 164 235 249 228 180 138 151 154 83 150 159 149 195 151 145 152 159 160 159 157 158 158 158 160 158 155 155 155 157 159 162 163 162 162 160 160 158 154 154 152 147 140 140 138 136 132 131 130 124 124 125 125 122 120 120 121 118 112 105 102 99 99 95 79 65 50 39 19 9 8 16 18 12 6 2
123 125 131 140 147 143 114 210 107 287 240 269 254 185 298 37 210 235 211 218 199 134 191 238 276 47 145 114 123 93 37 31 94 106 99 132 138 148 161 163 159 158 159 158 159 160 159 157 157 156 157 161 162 164 165 168 165 163 163 160 160 160 155 147 143 140 138 136 135 134 130 130 130 129 124 117 116 123 126 124 114 108 107 108 95 67 50 36 25 13 11 13 20 19 8 359 355
130 133 141 147 149 131 10 120 101 268 260 284 269 202 328 334 245 256 198 286 330 320 301 272 35 48 52 69 49 69 75 40 104 102 114 136 137 152 162 163 160 159 159 157 159 160 160 159 158 157 158 161 161 164 167 171 171 168 168 167 168 167 166 160 153 147 144 141 140 140 140 139 138 134 130 125 126 136 139 133 124 124 130 124 87 52 33 21 9 7 14 15 14 9 3 353 351
137 142 150 154 117 344 84 105 177 189 249 271 277 228 185 228 258 199 85 319 329 323 317 353 56 63 69 80 47 80 109 100 116 115 132 150 150 155 160 161 159 159 158 157 159 160 160 160 159 159 160 160 159 162 166 170 173 173 173 173 174 174 174 172 169 163 157 152 149 151 152 152 149 144 142 129 124 139 140 131 128 144 156 140 54 24 8 3 2 8 15 11 8 2 355 347 347
136 146 159 160 29 296 107 266 196 198 230 200 271 268 133 334 283 83 39 324 309 321 315 360 69 212 56 90 33 105 115 113 117 119 129 147 153 155 158 159 158 157 157 157 159 161 161 160 160 160 160 160 159 159 162 166 170 174 176 177 179 180 182 182 183 180 173 165 161 162 163 163 160 158 161 146 134 149 151 144 147 166 171 168 345 360 354 356 3 12 13 6 1 354 346 340 341
135 147 175 211 108 242 83 305 284 259 241 161 241 308 42 22 335 47 39 316 309 329 296 320 124 139 75 56 18 96 127 127 129 128 129 140 152 155 156 157 156 156 157 158 160 162 161 161 162 162 162 161 161 160 160 161 164 168 173 177 180 183 186 188 189 186 179 172 171 171 172 172 172 172 177 183 177 165 159 154 161 171 166 13 356 356 354 359 4 10 8 357 349 344 339 335 337
131 131 200 27 338 251 95 285 273 271 277 145 247 319 10 15 9 67 52 283 333 332 283 302 152 119 94 338 13 11 272 133 132 137 135 142 152 154 154 155 154 156 158 159 161 162 161 162 163 163 164 164 164 163 162 160 160 163 166 170 174 177 180 181 181 179 176 176 179 179 180 180 181 183 187 198 186 168 158 151 158 142 359 358 357 353 352 355 360 3 356 345 338 339 335 330 331
120 113 304 89 10 337 37 292 271 258 283 143 302 315 337 55 96 116 216 259 355 323 310 330 69 97 112 254 108 311 307 124 131 137 137 143 151 153 154 154 152 155 159 160 161 160 160 162 163 164 166 167 167 167 167 165 164 164 166 167 169 171 172 172 173 174 177 181 184 185 187 186 188 193 199 204 180 174 172 167 299 334 345 353 348 345 344 345 351 351 343 336 331 334 331 325 323
86 48 338 81 32 348 341 307 302 263 277 336 322 312 98 130 123 145 233 271 279 119 333 311 11 95 152 95 85 329 104 124 131 135 138 146 152 153 153 153 152 155 159 161 160 158 160 162 163 164 166 167 168 170 171 171 171 171 171 171 171 172 173 172 173 176 181 184 187 189 190 191 196 205 207 195 188 198 221 268 297 320 331 337 331 330 331 332 340 337 333 329 326 331 326 319 317
45 10 12 67 69 10 341 316 310 277 284 318 302 308 52 121 132 180 208 228 232 124 312 305 46 103 136 78 85 343 118 127 129 133 139 147 151 152 153 154 155 157 159 160 160 158 160 163 163 163 165 165 166 168 170 173 175 177 177 176 176 176 177 176 176 179 183 186 189 191 194 199 207 210 201 197 204 215 244 267 287 303 311 313 312 315 316 323 328 326 324 321 321 325 320 317 314
22 339 14 28 42 25 326 305 296 283 293 304 282 331 22 115 137 162 200 216 221 127 288 341 75 110 100 61 64 345 127 133 132 136 142 146 149 151 152 154 158 160 160 160 159 159 161 163 165 165 165 164 165 166 168 171 173 176 178 177 178 179 180 180 181 183 184 186 191 195 201 208 207 204 203 208 217 230 255 269 280 288 295 297 299 305 311 317 319 317 317 317 319 318 314 315 315
49 323 16 53 16 323 274 282 284 290 299 302 284 68 47 108 142 155 176 184 177 130 341 18 123 123 90 78 349 339 130 138 138 141 144 146 148 150 152 155 159 160 160 160 159 160 163 164 166 166 166 166 167 169 170 172 174 176 176 176 180 181 181 182 184 185 186 189 195 202 204 205 201 205 212 218 230 243 256 268 275 281 286 290 295 304 312 315 312 313 315 318 318 314 312 312 314
91 358 41 86 328 307 304 285 297 310 306 268 260 18 55 114 182 181 169 162 153 135 31 340 99 85 92 95 18 330 125 139 140 142 144 146 147 150 151 155 159 161 161 160 160 162 165 166 168 168 168 169 170 173 174 174 175 176 175 176 179 181 182 184 187 187 190 193 197 199 197 201 203 210 219 224 239 247 257 266 271 279 284 290 299 306 309 308 308 312 316 318 316 312 310 311 313
132 122 110 88 317 324 329 304 320 320 296 277 295 3 8 96 238 245 163 140 156 151 173 328 77 77 111 116 113 304 182 151 145 144 145 143 145 148 150 155 160 163 163 162 162 164 167 168 170 170 170 172 174 175 175 176 177 178 180 180 181 183 186 188 191 193 194 194 194 195 196 203 208 217 225 234 245 252 262 268 274 282 288 296 301 303 302 304 309 313 317 317 316 313 311 314 317
142 124 121 104 344 342 326 293 319 311 290 307 66 24 332 321 334 293 224 142 196 250 193 95 65 99 136 149 149 180 186 161 152 149 142 139 140 144 150 155 158 161 164 164 165 167 169 171 172 172 174 175 175 177 178 179 180 181 183 183 184 186 188 191 193 195 195 194 195 197 203 209 216 227 233 242 251 260 270 276 285 288 292 298 298 300 302 307 312 315 319 318 318 316 316 317 319
136 121 104 103 82 16 299 288 323 291 275 293 33 29 352 299 60 315 294 138 134 298 327 68 61 92 134 140 146 168 170 157 152 146 138 135 135 139 146 150 154 159 163 165 167 169 171 172 174 175 176 177 176 177 178 179 178 180 181 183 185 186 188 191 191 194 196 197 200 205 213 219 225 231 236 246 254 265 274 280 290 294 294 293 293 300 304 308 311 314 317 319 322 319 318 320 322
111 111 91 70 116 168 219 228 265 273 280 285 306 9 240 267 77 267 294 55 122 100 1 343 46 114 135 103 135 153 159 157 150 139 135 136 135 138 142 146 152 157 164 167 169 170 171 173 175 177 177 178 177 177 178 178 177 180 182 183 185 187 189 192 193 195 198 204 208 213 220 225 230 234 239 251 260 268 273 280 289 292 289 288 292 296 298 301 300 305 307 310 316 317 318 318 322
89 87 79 88 197 186 193 205 217 287 284 258 250 212 221 226 140 189 10 51 100 78 2 355 16 277 15 75 126 143 152 153 144 136 138 140 140 143 144 150 156 159 165 168 171 173 173 176 177 178 179 178 178 179 180 179 179 184 187 188 189 191 192 195 198 200 204 208 211 215 221 228 232 238 248 255 263 268 267 272 281 284 285 286 293 290 290 293 294 302 303 307 307 310 315 311 314
147 106 111 213 209 148 165 236 212 225 256 240 223 212 225 206 153 143 121 117 143 140 324 7 20 277 30 93 130 140 147 147 142 142 143 145 149 149 149 156 160 162 166 168 174 177 177 178 180 181 181 180 181 181 182 181 182 187 192 193 193 195 196 199 201 204 208 208 212 217 222 229 234 242 251 252 255 259 259 264 271 276 280 283 288 284 281 289 296 304 308 309 303 302 304 301 302
178 137 188 239 214 141 151 232 224 215 246 233 206 193 220 197 132 166 138 142 180 176 191 167 182 215 153 124 137 141 149 149 147 149 148 152 154 153 156 160 164 165 167 170 172 177 181 181 181 183 183 183 184 184 184 184 186 191 195 196 197 198 201 203 203 207 209 211 216 219 222 228 231 239 241 242 246 248 250 255 261 265 273 276 278 279 286 300 297 293 297 299 298 299 298 299 299
175 158 212 231 207 148 151 210 236 225 227 210 184 140 198 203 108 230 143 140 215 217 203 191 187 193 161 136 141 147 155 155 152 156 155 156 156 158 161 163 167 167 167 171 171 177 184 184 183 183 185 187 188 189 189 188 190 193 196 197 197 200 203 203 204 208 210 212 215 217 220 221 225 232 231 234 240 245 247 247 251 258 271 275 275 280 286 292 287 286 292 298 302 303 303 305 303
198 207 231 232 214 167 146 191 235 224 207 200 165 153 170 151 118 218 171 173 212 210 199 203 191 190 165 139 144 152 159 161 158 161 160 158 159 161 163 162 163 166 169 172 174 180 185 186 186 184 185 188 189 192 192 191 193 194 194 195 197 201 203 203 205 208 210 210 212 212 212 213 217 225 229 230 232 238 243 243 250 258 273 280 275 282 291 288 286 291 295 307 316 310 308 306 303
219 252 244 245 235 211 147 173 218 215 191 193 174 169 140 139 217 212 198 204 201 168 178 194 196 188 165 140 148 159 162 167 166 165 163 160 161 164 165 162 161 167 170 173 177 181 185 187 187 185 184 186 189 194 196 194 197 195 192 194 198 200 202 205 206 207 210 210 211 208 208 212 217 226 237 238 237 240 245 249 260 270 277 281 272 277 294 297 293 296 300 313 320 310 306 305 302
211 267 263 256 248 242 180 162 192 205 195 186 162 151 153 171 199 166 213 217 169 165 171 181 189 173 164 149 156 163 161 169 172 168 165 164 165 168 167 164 163 167 169 173 178 181 185 186 185 184 183 187 193 198 200 199 201 198 194 195 198 200 203 205 207 207 210 211 212 212 212 215 227 243 250 251 252 251 255 262 272 280 282 282 273 273 287 296 297 301 308 313 313 310 307 307 305
222 240 256 260 256 250 241 169 173 192 200 164 141 164 184 180 159 151 222 221 184 201 171 168 165 157 172 167 160 157 158 169 173 170 166 168 169 169 168 167 165 165 170 174 178 183 186 186 184 184 186 192 196 200 204 203 203 200 196 197 197 200 205 206 206 206 210 211 211 216 216 217 231 241 246 253 260 261 263 271 279 280 278 277 269 273 286 295 302 304 306 307 307 312 310 310 310
224 220 244 265 274 264 263 234 172 170 183 149 136 186 199 170 138 169 232 211 182 187 165 163 159 161 181 181 158 153 162 169 173 171 169 170 170 170 170 170 167 167 172 175 178 184 185 185 185 186 190 194 198 202 205 204 202 199 197 199 198 200 205 203 204 206 210 213 213 218 219 221 226 230 241 254 266 273 275 275 275 269 266 270 273 285 293 296 304 304 301 303 307 312 311 310 310
236 245 275 270 275 279 258 248 199 156 172 170 142 151 187 176 161 240 233 180 169 164 155 164 161 169 181 179 154 152 169 174 172 170 168 171 173 174 171 171 170 169 173 175 180 184 183 186 186 188 192 195 200 202 202 200 198 198 197 199 200 200 202 198 203 211 217 221 220 220 222 223 224 232 253 271 279 278 274 268 260 260 270 273 285 293 294 296 300 300 297 298 306 310 310 311 309
250 262 300 283 283 292 261 248 221 156 174 180 128 107 143 159 254 238 200 154 159 155 150 165 164 172 178 167 157 153 183 180 172 169 167 171 178 175 169 170 171 171 173 176 181 183 183 187 186 188 193 196 200 201 201 197 195 196 197 199 199 199 200 197 204 217 224 227 223 220 221 223 229 245 264 282 288 272 256 256 252 258 265 267 283 288 286 290 292 293 294 295 301 306 306 308 310
259 254 302 290 310 311 268 252 195 163 164 156 117 83 63 204 240 218 161 146 147 155 153 165 166 170 171 156 161 171 195 183 172 173 167 170 182 174 166 170 171 172 174 177 181 182 184 187 187 188 193 197 200 202 204 200 196 196 196 198 196 198 202 202 208 218 222 221 216 214 215 221 233 253 274 282 274 218 207 242 255 260 266 272 286 289 282 285 291 293 295 297 301 304 304 306 310
280 265 215 283 333 313 271 241 151 150 156 157 124 57 261 229 241 144 147 150 141 161 161 162 162 162 166 155 164 181 199 183 173 182 170 173 188 175 166 171 170 172 175 179 182 183 184 186 187 189 192 196 199 203 206 202 198 195 196 197 195 198 202 204 209 216 218 213 208 208 211 221 227 242 275 268 232 209 215 241 265 281 294 290 285 288 283 284 296 301 301 303 307 311 309 312 314
271 296 254 267 317 279 281 250 133 120 180 170 119 133 247 234 229 153 156 158 151 170 159 157 164 151 155 156 166 177 198 190 180 190 182 181 190 174 170 174 172 173 175 179 184 183 184 185 187 187 190 194 197 202 205 200 195 193 195 198 197 198 201 206 211 214 214 207 206 208 211 221 222 231 247 237 227 225 231 261 282 296 318 319 303 301 290 291 308 314 314 312 316 322 320 320 324
246 284 306 288 206 262 298 268 158 141 208 193 120 167 250 235 207 165 159 158 163 174 150 164 189 149 133 136 166 180 186 187 178 199 206 195 197 176 170 174 176 177 177 180 185 184 183 186 187 185 187 192 194 199 203 197 192 190 193 197 198 199 203 208 209 211 211 206 208 212 212 218 219 224 229 226 226 228 241 272 289 301 320 321 316 315 305 308 320 321 320 318 321 324 324 323 325
301 183 256 274 229 277 318 291 191 153 154 205 170 162 220 226 188 164 164 161 167 175 154 171 190 150 129 125 161 208 183 164 156 202 224 213 210 193 173 173 177 180 183 184 185 184 182 186 187 183 186 190 191 197 198 194 191 188 189 193 197 201 204 205 205 210 213 212 213 215 217 221 223 223 222 224 224 228 241 266 285 297 309 314 313 313 314 319 323 319 315 319 322 320 319 321 321
302 224 241 255 240 265 296 303 254 154 151 190 190 170 180 173 166 165 172 164 163 177 166 172 179 147 149 152 167 216 195 173 158 195 220 219 217 213 180 174 178 180 186 187 185 185 183 184 184 183 187 188 189 193 191 190 189 186 189 195 198 203 207 207 206 210 216 220 220 217 218 224 228 223 220 223 224 227 238 259 279 289 295 305 307 307 314 318 319 315 313 319 322 316 313 317 318
226 212 232 275 272 259 244 274 221 165 164 178 184 199 157 139 159 173 179 169 164 177 173 173 179 158 161 170 182 197 188 186 179 191 211 216 218 221 187 175 180 181 185 187 184 184 182 181 181 183 188 188 188 190 187 187 188 189 197 203 206 210 215 214 214 216 218 225 226 219 217 223 228 219 216 221 222 224 232 250 271 291 295 301 306 311 316 311 308 308 309 314 316 312 309 310 314
222 216 204 237 261 270 246 246 197 167 156 180 190 192 148 146 168 179 183 178 164 170 171 171 183 176 170 179 201 199 174 185 194 193 206 211 216 222 191 175 180 183 184 184 181 180 179 177 178 183 188 187 187 187 185 186 187 193 202 209 214 218 222 222 224 225 226 230 227 219 217 221 219 210 212 214 215 224 230 244 267 287 292 300 308 312 315 308 303 304 303 304 307 310 311 313 316
259 258 239 238 253 278 267 261 200 160 152 210 195 157 148 160 172 179 182 184 173 170 175 180 186 189 184 187 204 197 171 184 195 195 203 206 208 215 193 176 180 183 182 181 178 175 175 175 178 183 185 184 185 185 186 187 188 195 202 207 215 222 225 227 229 232 239 238 226 217 217 219 213 203 210 217 218 223 224 240 263 274 283 296 304 306 308 305 303 305 303 301 302 305 310 316 318
252 253 257 265 260 262 270 282 189 155 157 210 164 137 159 168 168 173 175 185 191 182 180 183 184 187 190 195 200 189 166 182 199 194 193 197 200 203 192 180 181 184 181 180 177 173 174 176 179 181 180 181 185 186 188 189 190 198 201 205 215 224 227 229 231 236 245 236 223 219 218 217 210 203 218 233 224 217 219 234 250 264 279 288 298 302 300 298 301 305 307 303 300 302 303 311 321
242 241 243 264 264 268 289 308 139 150 164 185 148 138 163 169 162 168 178 191 196 189 187 184 178 180 188 194 195 184 166 181 207 203 186 192 198 198 194 188 190 189 181 181 177 172 174 176 178 180 179 181 184 185 187 189 193 201 203 208 216 222 227 229 230 241 245 224 217 218 214 210 206 204 220 235 223 215 219 229 236 257 275 282 295 300 295 293 298 307 313 312 305 301 298 309 327
236 222 201 243 259 244 288 310 78 91 80 135 124 103 117 149 155 173 186 194 190 188 195 189 182 182 187 192 190 184 175 180 198 206 199 201 202 201 195 194 199 192 177 178 177 173 174 175 177 180 181 182 184 185 190 193 196 202 205 211 215 218 226 224 227 243 232 204 206 208 203 203 204 207 215 221 218 214 217 227 238 255 269 280 292 296 295 295 301 312 324 327 316 303 300 315 331
250 219 195 217 247 234 243 237 109 40 30 107 107 79 33 168 175 196 192 187 184 183 188 197 200 191 188 192 192 191 182 179 190 199 203 202 204 205 199 197 200 191 176 176 176 173 174 176 178 181 183 185 186 189 193 194 195 202 207 213 218 222 227 223 228 241 221 199 200 198 198 202 208 213 217 219 218 218 223 235 246 258 270 281 290 295 300 304 313 324 333 339 333 320 317 322 333
293 253 214 203 223 255 261 197 115 58 357 225 128 101 267 211 190 199 189 182 185 182 187 198 205 197 191 195 198 197 189 182 188 195 201 200 203 203 200 199 196 188 179 177 176 174 176 177 179 182 184 186 189 191 193 193 196 206 207 210 219 222 223 224 227 228 226 218 203 196 200 207 215 221 225 228 223 222 229 240 250 262 272 283 292 298 307 317 326 335 342 349 353 349 336 328 340
331 265 234 214 216 264 274 253 152 115 242 229 184 162 241 230 215 202 185 187 187 182 193 199 199 199 197 197 200 197 194 189 186 195 202 201 202 200 200 203 195 187 182 177 175 175 177 177 179 183 185 188 191 193 193 193 200 209 206 207 218 218 217 220 220 220 231 223 202 196 202 210 220 228 232 230 222 224 233 243 254 262 270 283 294 299 310 324 335 347 360 9 17 20 12 6 9
247 249 243 257 269 284 278 275 253 202 204 201 190 164 115 217 240 197 174 181 188 189 198 200 198 200 199 198 201 199 196 192 186 195 203 200 201 200 200 205 199 188 181 176 174 174 176 177 179 183 187 190 193 193 193 194 201 211 207 206 215 215 215 218 216 220 223 206 195 198 207 215 223 228 231 225 219 228 238 246 254 261 268 278 292 303 314 329 349 8 16 21 25 29 30 29 30
233 246 250 260 254 257 262 272 270 212 93 336 232 172 106 261 262 166 163 180 201 204 201 199 197 198 199 199 199 201 199 192 187 194 201 200 201 202 202 205 201 187 178 175 174 174 176 178 179 182 187 191 192 193 194 195 203 212 210 207 210 210 212 216 215 218 215 198 201 210 215 220 224 227 229 223 221 230 239 250 255 257 266 278 293 309 327 346 7 15 14 17 16 21 27 29 33
245 249 266 294 277 270 276 269 277 334 97 267 241 176 150 272 255 154 162 205 220 210 200 200 198 195 197 199 198 199 199 192 189 194 197 199 200 201 204 206 201 188 178 176 176 174 174 177 179 182 186 190 191 192 194 199 206 213 209 206 209 208 206 206 208 214 218 221 231 228 223 224 224 228 232 226 226 233 242 253 254 255 270 284 295 308 328 349 7 13 11 13 12 17 23 28 34
267 348 11 350 325 311 324 285 331 60 28 264 240 183 148 279 256 181 180 216 215 199 193 197 198 195 195 197 196 197 196 189 189 193 194 197 198 198 203 208 202 188 179 174 175 175 173 175 179 182 186 189 191 192 195 201 209 212 207 205 210 214 207 204 207 214 220 236 252 238 228 228 227 231 236 233 234 238 245 254 254 260 275 281 280 290 312 353 12 10 8 10 12 19 26 32 39
19 43 53 6 328 348 6 349 40 81 262 264 240 169 121 189 254 208 207 230 214 185 190 192 193 195 194 193 193 194 193 186 186 191 191 194 196 196 202 207 199 188 180 172 173 176 174 175 178 181 185 189 191 193 197 203 208 210 207 206 210 212 211 214 219 225 229 236 241 225 220 226 229 230 234 239 243 246 249 252 254 261 265 248 245 282 335 8 5 2 8 13 20 29 34 41 47
34 49 52 27 326 357 7 333 16 116 250 250 206 144 108 234 249 214 211 227 222 197 194 191 190 191 190 191 190 190 190 185 185 189 190 192 194 195 201 202 193 186 180 171 171 176 176 178 179 178 182 187 191 194 198 202 206 209 209 209 211 210 212 221 230 241 247 244 220 201 205 215 222 226 233 241 248 253 253 250 248 240 215 212 230 305 356 3 1 6 16 23 31 38 40 46 52
36 115 115 130 132 33 323 295 345 217 266 261 200 131 56 286 275 227 206 221 221 208 197 190 188 187 186 187 185 186 188 185 186 187 187 192 195 197 200 197 188 183 180 171 170 175 176 179 181 180 181 185 190 194 198 200 203 207 211 214 214 211 213 222 238 250 251 240 220 211 217 219 222 229 234 239 252 269 265 244 225 205 193 194 213 340 1 7 7 13 22 29 37 40 40 44 45
233 198 147 136 152 150 204 228 181 206 259 298 6 78 154 226 267 248 230 247 232 212 200 190 185 183 180 178 179 183 186 185 186 187 187 190 194 199 198 191 184 183 180 171 171 175 176 179 182 183 184 185 189 194 197 200 202 205 211 216 215 213 215 222 238 246 236 225 225 232 235 236 239 241 241 247 263 272 237 185 180 178 174 177 206 360 9 12 9 13 22 31 39 40 36 35 34
263 224 101 125 190 158 170 210 185 167 169 329 347 318 204 202 262 282 307 307 269 209 185 171 171 170 165 169 178 182 185 186 185 186 187 187 191 196 195 188 183 182 176 169 172 175 177 181 183 185 187 188 190 194 197 200 203 206 211 215 213 212 216 224 236 236 223 222 234 243 244 246 248 249 257 267 253 204 167 158 160 160 159 155 54 19 12 12 12 18 29 40 47 41 32 35 40
276 338 157 229 190 144 150 271 268 87 91 287 286 262 286 322 306 306 312 289 290 154 160 162 165 163 163 174 180 181 185 185 184 185 186 185 186 190 190 186 184 183 176 167 174 178 178 182 184 185 188 189 190 194 197 200 204 206 210 211 210 211 215 223 232 230 221 227 238 246 252 253 250 256 265 248 182 167 160 159 157 149 139 101 49 24 16 19 22 32 45 51 48 37 37 49 52
123 191 219 244 55 95 115 253 348 51 103 256 250 213 246 311 285 295 295 255 210 150 156 157 159 163 170 179 180 181 185 183 182 182 184 184 183 184 187 187 186 189 185 170 176 183 182 183 185 185 187 189 191 194 197 200 203 204 207 207 207 211 215 222 229 228 225 229 237 245 252 257 263 267 251 186 166 162 158 157 153 143 123 78 43 29 27 27 33 49 56 53 45 43 54 60 57
151 193 189 121 67 309 339 104 317 60 127 259 283 251 214 208 228 252 247 232 196 162 158 156 163 173 176 178 179 179 179 179 178 178 180 181 182 184 187 190 189 193 193 177 179 187 187 185 186 186 188 190 191 194 197 200 202 203 204 204 205 209 215 222 227 229 228 229 235 242 253 268 273 253 192 169 166 164 161 158 152 141 113 70 43 37 37 38 49 59 56 52 53 58 64 63 59
308 285 276 111 160 198 224 181 170 145 156 221 246 295 242 231 220 202 219 225 187 165 175 174 176 179 176 174 176 175 172 171 175 178 178 176 183 186 189 194 194 196 198 185 180 188 190 189 187 186 188 189 190 192 195 198 201 203 203 203 206 208 212 220 225 228 230 232 234 241 259 276 220 177 168 168 170 167 163 156 144 126 90 60 47 46 48 52 61 59 54 61 70 69 68 67 62
220 259 264 263 226 200 215 237 185 138 151 180 151 181 259 254 215 199 216 223 192 176 178 180 179 176 174 173 172 171 166 162 170 180 179 178 184 188 193 198 199 201 201 191 183 188 191 191 188 185 184 186 188 190 193 197 200 203 204 205 207 208 211 217 223 228 232 234 238 246 263 235 173 166 168 170 166 162 159 151 134 106 74 57 56 63 65 63 62 61 68 82 84 76 72 70 62
176 195 216 215 208 168 110 284 279 132 144 168 146 176 254 253 207 205 216 215 198 180 168 169 172 168 170 172 171 168 161 160 175 189 186 184 188 193 195 199 208 210 203 192 186 188 190 190 187 184 184 186 189 191 193 196 200 202 204 208 211 210 212 218 224 228 231 235 240 246 241 199 176 170 171 170 164 160 158 151 130 102 92 82 79 81 74 64 64 77 90 96 91 81 76 73 62